{"data":{"norad_id":69440,"intl_designator":"2026-126W","name":"STARLINK-37747","alt_names":[],"object_type":"PAYLOAD","status":"ACTIVE","operator":null,"country":"US","launch_date":"2026-06-07","launch_site_code":"AFWTR","launch_vehicle":null,"mission":null,"orbit_class":"UNKNOWN","rcs_meters":null,"size_class":null,"mass_kg":null,"dimensions":null,"purposes":["comms"],"wikipedia_slug":null,"has_3d_model":false,"image_url":null,"decayed_at":null,"tle_current":{"epoch":"2026-09-19T10:19:03.994176Z","epoch_age_seconds":117935,"freshness":"FRESH","line1":"1 69440U 26126W   26262.42990734  .00017955  00000+0  55702-3 0  9994","line2":"2 69440  97.2843 123.7310 0002033  86.7854 273.3621 15.33451770 17368","mean_motion":15.3345177,"eccentricity":0.0002033,"inclination_deg":97.2843,"raan_deg":123.731,"arg_perigee_deg":86.7854,"mean_anomaly_deg":273.3621,"bstar":0.00055702,"rev_number":1736,"period_min":93.90579007255,"perigee_km":464.13171571087,"apogee_km":466.9143478798,"semimajor_km":6843.6600317953,"source":"CELESTRAK","updated_at":"2026-09-20T09:00:44.198253Z"}}}